Cody, WY

8:50 PM MST on December 12, 2017 (GMT -0700)
Yellowstone Regional

Weather History for KCOD - April, 2012

Change the Weather History Date:

Friday, April 6, 2012

  Actual Average Record
Temperature  
Mean Temperature 30 °F -  
Max Temperature 35 °F 57 °F 78 °F (1930)
Min Temperature 26 °F 31 °F 5 °F (1939)
Degree Days  
Heating Degree Days 34    
Moisture  
Dew Point 28 °F    
Average Humidity 86    
Maximum Humidity 100    
Minimum Humidity 70    
Precipitation  
Precipitation 0.00 in - - ()
Sea Level Pressure  
Sea Level Pressure 29.83 in    
Wind  
Wind Speed 11 mph (North)    
Max Wind Speed 20 mph    
Max Gust Speed 25 mph    
Visibility 9 miles    
Events      
Averages and records for this station are not official NWS values.
T = Trace of Precipitation, MM = Missing Value Source: NWS Daily Summary

Daily Weather History Graph

Daily Weather History Graph

Search for Another Location

Airport or City:

Trip Planner

Search our weather history database for the weather conditions in past years. The results will help you decide how hot, cold, wet, or windy it might be!

Date:

Astronomy

Apr. 06, 2012 Rise Set
Actual Time 6:46 AM MDT 7:50 PM MDT
Civil Twilight 6:17 AM MDT 8:20 PM MDT
Nautical Twilight 5:41 AM MDT 8:55 PM MDT
Astronomical Twilight 5:04 AM MDT 9:33 PM MDT
Moon 8:17 PM MDT (4/6) 6:20 AM MDT (4/6)
Length of Visible Light 14h 02m
Length of Day
13h 03m
Full, 100% of the Moon is Illuminated
Apr 6
Full
Apr 6
Full
Apr 13
Last Quarter
Apr 21
New
Apr 29
First Quarter

Hourly Weather History & Observations

Time (MDT) Temp. Windchill Dew Point Humidity Pressure Visibility Wind Dir Wind Speed Gust Speed Precip Events Conditions
12:35 AM 33.8 °F 25.8 °F 28.4 °F 81% 29.78 in 10.0 mi North 10.4 mph - N/A   Overcast
12:55 AM 33.8 °F 29.6 °F 26.6 °F 75% 29.77 in 10.0 mi North 4.6 mph - N/A   Mostly Cloudy
1:15 AM 33.8 °F - 28.4 °F 81% 29.78 in 10.0 mi Calm Calm - N/A   Mostly Cloudy
1:35 AM 33.8 °F 25.8 °F 28.4 °F 81% 29.76 in 10.0 mi NNW 10.4 mph - N/A   Mostly Cloudy
1:55 AM 33.8 °F 25.3 °F 28.4 °F 81% 29.75 in 10.0 mi North 11.5 mph 20.7 mph N/A   Overcast
2:15 AM 33.8 °F 23.5 °F 28.4 °F 81% 29.75 in 10.0 mi North 16.1 mph 19.6 mph N/A   Overcast
2:35 AM 33.8 °F 25.3 °F 28.4 °F 81% 29.74 in 10.0 mi North 11.5 mph 17.3 mph N/A   Overcast
2:55 AM 33.8 °F 24.3 °F 28.4 °F 81% 29.72 in 10.0 mi North 13.8 mph 19.6 mph N/A   Overcast
3:15 AM 33.8 °F 23.2 °F 28.4 °F 81% 29.73 in 10.0 mi North 17.3 mph - N/A   Overcast
3:35 AM 33.8 °F 24.3 °F 28.4 °F 81% 29.73 in 10.0 mi North 13.8 mph - N/A   Overcast
3:55 AM 33.8 °F 23.9 °F 28.4 °F 81% 29.70 in 10.0 mi North 15.0 mph - N/A   Overcast
4:15 AM 32.0 °F 21.2 °F 28.4 °F 87% 29.71 in 5.0 mi North 16.1 mph 21.9 mph N/A   Overcast
4:35 AM 32.0 °F 24.2 °F 28.4 °F 87% 29.72 in 8.0 mi North 9.2 mph - N/A   Overcast
4:55 AM 32.0 °F 23.6 °F 28.4 °F 87% 29.73 in 10.0 mi North 10.4 mph - N/A   Overcast
5:15 AM 32.0 °F 21.2 °F 28.4 °F 87% 29.72 in 10.0 mi North 16.1 mph - N/A   Overcast
5:35 AM 32.0 °F 22.1 °F 28.4 °F 87% 29.71 in 10.0 mi North 13.8 mph - N/A   Overcast
5:55 AM 30.2 °F 20.2 °F 28.4 °F 93% 29.71 in 10.0 mi North 12.7 mph - N/A   Overcast
6:15 AM 30.2 °F 20.2 °F 28.4 °F 93% 29.71 in 10.0 mi North 12.7 mph - N/A   Overcast
6:55 AM 30.2 °F 19.3 °F 28.4 °F 93% 29.71 in 10.0 mi NNW 15.0 mph - N/A   Overcast
7:15 AM 30.2 °F 20.8 °F 28.4 °F 93% 29.72 in 10.0 mi North 11.5 mph - N/A   Overcast
7:35 AM 30.2 °F 23.4 °F 28.4 °F 93% 29.72 in 10.0 mi NNE 6.9 mph - N/A   Overcast
7:55 AM 32.0 °F 23.0 °F 28.4 °F 87% 29.71 in 10.0 mi NNE 11.5 mph - N/A   Mostly Cloudy
8:15 AM 32.0 °F 22.5 °F 28.4 °F 87% 29.70 in 9.0 mi NNE 12.7 mph - N/A   Overcast
8:55 AM 32.0 °F 23.0 °F 28.4 °F 87% 29.72 in 10.0 mi North 11.5 mph - N/A   Overcast
9:15 AM 32.0 °F 21.6 °F 28.4 °F 87% 29.71 in 10.0 mi North 15.0 mph - N/A   Overcast
9:35 AM 33.8 °F 24.8 °F 28.4 °F 81% 29.71 in 10.0 mi North 12.7 mph - N/A   Overcast
9:55 AM 33.8 °F 23.5 °F 28.4 °F 81% 29.72 in 10.0 mi North 16.1 mph - N/A   Overcast
10:15 AM 32.0 °F 23.0 °F 28.4 °F 87% 29.73 in 10.0 mi North 11.5 mph - N/A   Overcast
10:35 AM 33.8 °F 24.8 °F 28.4 °F 81% 29.73 in 10.0 mi North 12.7 mph - N/A   Overcast
10:55 AM 32.0 °F 22.5 °F 26.6 °F 80% 29.74 in 9.0 mi North 12.7 mph - N/A   Overcast
11:15 AM 32.0 °F 22.5 °F 28.4 °F 87% 29.74 in 10.0 mi North 12.7 mph - N/A   Overcast
11:35 AM 33.8 °F 26.4 °F 28.4 °F 81% 29.74 in 10.0 mi North 9.2 mph - N/A   Overcast
11:55 AM 33.8 °F 25.8 °F 28.4 °F 81% 29.75 in 10.0 mi NNE 10.4 mph - N/A   Overcast
12:35 PM 35.6 °F 29.9 °F 26.6 °F 70% 29.75 in 10.0 mi North 6.9 mph - N/A   Overcast
12:55 PM 35.6 °F 27.5 °F 28.4 °F 75% 29.75 in 10.0 mi North 11.5 mph - N/A   Overcast
1:15 PM 35.6 °F 27.5 °F 26.6 °F 70% 29.76 in 10.0 mi North 11.5 mph - N/A   Overcast
1:35 PM 33.8 °F 26.4 °F 28.4 °F 81% 29.78 in 3.0 mi NNW 9.2 mph - N/A   Overcast
1:55 PM 32.0 °F 23.0 °F 30.2 °F 93% 29.78 in 1.0 mi North 11.5 mph - N/A   Overcast
2:15 PM 30.2 °F 21.3 °F 28.4 °F 93% 29.79 in 2.5 mi North 10.4 mph - N/A   Overcast
2:35 PM 32.0 °F 22.1 °F 30.2 °F 93% 29.80 in 10.0 mi NNE 13.8 mph 17.3 mph N/A   Overcast
2:55 PM 33.8 °F 23.2 °F 32.0 °F 93% 29.80 in 10.0 mi North 17.3 mph - N/A   Overcast
3:35 PM 33.8 °F 23.9 °F 30.2 °F 87% 29.81 in 10.0 mi North 15.0 mph - N/A   Overcast
4:15 PM 33.8 °F 23.2 °F 28.4 °F 81% 29.84 in 10.0 mi North 17.3 mph 25.3 mph N/A   Overcast
4:35 PM 33.8 °F 23.2 °F 28.4 °F 81% 29.85 in 9.0 mi North 17.3 mph - N/A   Overcast
4:55 PM 33.8 °F 22.5 °F 28.4 °F 81% 29.86 in 10.0 mi North 19.6 mph 25.3 mph N/A   Overcast
5:35 PM 32.0 °F 20.1 °F 28.4 °F 87% 29.88 in 10.0 mi North 19.6 mph - N/A   Overcast
5:55 PM 32.0 °F 20.1 °F 28.4 °F 87% 29.90 in 10.0 mi North 19.6 mph - N/A   Mostly Cloudy
6:55 PM 30.2 °F 19.8 °F 28.4 °F 93% 29.95 in 10.0 mi North 13.8 mph - N/A   Overcast
7:35 PM 30.2 °F 20.2 °F 26.6 °F 86% 29.98 in 10.0 mi North 12.7 mph 18.4 mph N/A   Overcast
7:55 PM 28.4 °F 18.0 °F 26.6 °F 93% 29.99 in 10.0 mi North 12.7 mph 24.2 mph N/A   Overcast
8:15 PM 28.4 °F 17.0 °F 24.8 °F 86% 30.00 in 10.0 mi North 15.0 mph 19.6 mph N/A   Overcast
8:35 PM 28.4 °F 19.1 °F 24.8 °F 86% 30.02 in 10.0 mi North 10.4 mph 20.7 mph N/A   Overcast
8:55 PM 28.4 °F 16.6 °F 24.8 °F 86% 30.04 in 10.0 mi North 16.1 mph 21.9 mph N/A   Overcast
9:15 PM 28.4 °F 18.0 °F 24.8 °F 86% 30.05 in 10.0 mi North 12.7 mph 18.4 mph N/A   Overcast
9:35 PM 28.4 °F 16.6 °F 24.8 °F 86% 30.06 in 10.0 mi North 16.1 mph - N/A   Overcast
9:55 PM 28.4 °F 19.1 °F 23.0 °F 80% 30.06 in 10.0 mi North 10.4 mph 18.4 mph N/A   Overcast
10:15 PM 26.6 °F 19.1 °F 23.0 °F 86% 30.08 in 10.0 mi NNE 6.9 mph - N/A   Overcast
10:35 PM 26.6 °F 19.1 °F 24.8 °F 93% 30.09 in 10.0 mi North 6.9 mph - N/A   Overcast
10:55 PM 26.6 °F 22.6 °F 24.8 °F 93% 30.10 in 8.0 mi NNE 3.5 mph - N/A   Overcast
11:15 PM 26.6 °F 20.0 °F 26.6 °F 100% 30.10 in 3.0 mi NNE 5.8 mph - N/A   Overcast
11:35 PM 26.6 °F 20.0 °F 26.6 °F 100% 30.11 in 1.0 mi NE 5.8 mph - N/A   Overcast
11:55 PM 26.6 °F 22.6 °F 26.6 °F 100% 30.11 in 1.8 mi NE 3.5 mph - N/A   Overcast